NUSANTARA LIMA (NUSANT*)

Last updated on Sun Jun 21 2026 00:03:09 GMT+0000 (Coordinated Universal Time)

1 65588U 25205A 26171.34303559 -.00000362 00000+0 00000+0 0 9995 2 65588 0.0404 170.4876 0000107 328.8729 5.5338 1.00270872 2757
UTC large
Height (km)
Speed (km/s)
/
Latitude / Longitude
Inclination (degrees)
Orbital Period (minutes)
Azimuth
Elevation
Range (km)
Doppler Factor

Next 0 passes for location: London (51.5072 / 0.1276)

No passes found over London.
NUSANTARA LIMA (NUSANT*)